Location: Altleiningen
(49.5078°N, 8.0741°E)
Time: 16:09:50
(UTC+00:00)

Cosmos 2369 Rocket - Visible Passes

Search period start: 23 June 2021 00:00
Search period end: 03 July 2021 00:00
Orbit: 827 x 854 km, 71.0° (Epoch: 22 June)

Date Brightness Start Highest point End Pass type
(mag) Time Alt. Az. Time Alt. Az. Time Alt. Az.
23 Jun 4.3 01:31:18 10° W 01:32:14 10° W 01:33:10 10° WSW visible
23 Jun 3.8 21:44:34 10° NNW 21:49:30 28° NE 21:54:23 10° ESE visible
23 Jun 2.3 23:28:19 10° NNW 23:34:01 67° WSW 23:37:04 28° S visible
24 Jun 4.2 01:15:20 10° WNW 01:16:55 11° W 01:18:29 10° WSW visible
24 Jun 3.8 21:29:13 10° NNW 21:34:05 27° NE 21:38:54 10° ESE visible
24 Jun 2.2 23:12:56 10° NNW 23:18:39 70° WSW 23:21:43 28° S visible
25 Jun 4.2 00:59:36 10° WNW 01:01:36 12° W 01:03:29 10° WSW visible
25 Jun 3.9 21:13:52 10° NNW 21:18:40 26° NE 21:23:25 10° E visible
25 Jun 2.2 22:57:33 10° NNW 23:03:17 74° WSW 23:06:25 28° SSE visible
26 Jun 4.2 00:43:55 10° WNW 00:46:17 13° W 00:48:11 11° WSW visible
26 Jun 3.9 20:58:31 10° NNW 21:03:14 25° NE 21:07:56 10° E visible
26 Jun 2.2 22:42:10 10° NNW 22:47:55 77° WSW 22:51:10 27° SSE visible
27 Jun 4.1 00:28:18 10° WNW 00:30:58 13° W 00:32:56 11° WSW visible
27 Jun 3.9 20:43:10 10° NNW 20:47:49 25° NE 20:52:26 10° E visible
27 Jun 2.2 22:26:47 10° NNW 22:32:32 81° WSW 22:35:56 26° SSE visible
28 Jun 4.1 00:12:43 10° WNW 00:15:38 14° W 00:17:42 12° WSW visible
28 Jun 3.9 20:27:50 10° NNW 20:32:24 24° NE 20:36:56 10° E visible
28 Jun 2.2 22:11:25 10° NNW 22:17:10 85° WSW 22:20:44 24° SSE visible
28 Jun 4.1 23:57:10 10° WNW 00:00:19 15° W 00:02:31 12° WSW visible
29 Jun 2.2 21:56:02 10° NNW 22:01:48 88° WSW 22:05:35 22° SSE visible
29 Jun 4.1 23:41:38 10° WNW 23:45:00 16° W 23:47:21 13° SW visible
30 Jun 2.2 21:40:40 10° NNW 21:46:26 88° ENE 21:50:27 20° SSE visible
30 Jun 4.1 23:26:07 10° WNW 23:29:40 17° W 23:32:14 13° SW visible
01 Jul 2.2 21:25:17 10° NNW 21:31:03 84° ENE 21:35:22 18° SSE visible
01 Jul 4.1 23:10:37 10° WNW 23:14:20 18° W 23:17:09 13° SW visible
02 Jul 2.3 21:09:55 10° NNW 21:15:41 80° ENE 21:20:18 16° SSE visible
02 Jul 4.0 22:55:08 10° WNW 22:59:00 19° W 23:02:05 13° SW visible
